This is the latest recevied weather packets stored in our database for station/object DN1US-13. If no packets are shown the sender has not sent any weather packets the latest 10 day(s).
| Time | Temp. | Humidity | Pressure | Rain* | Wind** | Luminosity | Snow |
|---|---|---|---|---|---|---|---|
| 1777912006 | 22.22° C | 79% | 987.3 hPa | 0 mm | - | - | - |
| 1777911702 | 22.22° C | 73% | 987.3 hPa | 0 mm | - | - | - |
| 1777911398 | 22.22° C | 74% | 987.2 hPa | 0 mm | - | - | - |
| 1777911094 | 21.67° C | 73% | 987.2 hPa | 0 mm | - | - | - |
| 1777910792 | 21.67° C | 75% | 987.3 hPa | 0 mm | - | - | - |
| 1777910486 | 21.67° C | 65% | 987.3 hPa | 0 mm | - | - | - |
| 1777910182 | 22.22° C | 63% | 987.2 hPa | 0 mm | - | - | - |
| 1777909878 | 22.78° C | 60% | 987.3 hPa | 0 mm | - | - | - |
| 1777909574 | 22.78° C | 54% | 987.4 hPa | 0 mm | - | - | - |
| 1777909272 | 22.78° C | 48% | 987.3 hPa | 0 mm | - | - | - |
| 1777908966 | 22.22° C | 52% | 987.3 hPa | 0 mm | - | - | - |
| 1777908662 | 23.33° C | 45% | 987.3 hPa | 0 mm | - | - | - |
| 1777908358 | 23.33° C | 44% | 987.3 hPa | 0 mm | - | - | - |
| 1777908055 | 22.78° C | 46% | 987.4 hPa | 0 mm | - | - | - |
| 1777907752 | 23.89° C | 44% | 987.4 hPa | 0 mm | - | - | - |
| 1777907446 | 23.89° C | 45% | 987.4 hPa | 0 mm | - | - | - |
| 1777907143 | 23.89° C | 43% | 987.4 hPa | 0 mm | - | - | - |
| 1777906839 | 23.33° C | 44% | 987.4 hPa | 0 mm | - | - | - |
| 1777906535 | 23.33° C | 46% | 987.4 hPa | 0 mm | - | - | - |
| 1777906232 | 23.33° C | 47% | 987.4 hPa | 0 mm | - | - | - |
| 1777905927 | 23.33° C | 45% | 987.5 hPa | 0 mm | - | - | - |
| 1777905623 | 22.78° C | 44% | 987.5 hPa | 0 mm | - | - | - |
| 1777905319 | 23.89° C | 43% | 987.5 hPa | 0 mm | - | - | - |
| 1777905015 | 23.89° C | 43% | 987.6 hPa | 0 mm | - | - | - |
| 1777904712 | 23.33° C | 43% | 987.6 hPa | 0 mm | - | - | - |
* Rain latest hour (hover to see other rain measurements)
** Current wind speed in m/s (hover to see current wind gust speed)